Tracking 27380 objects as of 6-Jun-2023
HD Live streaming from Space Station
objects crossing your sky now

OPS 4682 DEB

Track OPS 4682 DEB now!
10-day predictions


NORAD ID: 38397
Int'l Code: 1965-027DA
Perigee: 1,242.8 km
Apogee: 1,301.4 km
Inclination: 90.2 °
Period: 110.8 minutes
Semi major axis: 7643 km
RCS: 0.0089 m2 (small)
Launch date: April 3, 1965
Source: United States (US)
Launch site: AIR FORCE WESTERN TEST RANGE (AFWTR)

Note: This is SATELLITE DEBRIS
Your satellite tracking list
Your tracking list is empty




NASA's NSSDC Master Catalog

Two Line Element Set (TLE):
1 38397U 65027DA  23156.95312724 -.00000368  00000-0 -12559-2 0  9993
2 38397  90.2439 352.5667 0038314 304.3475  55.4024 12.99261592192253
Source of the keplerian elements: AFSPC